timestamp,surface_pressure_avg,surface_temp_avg,battery_voltage,lat,long
2021-09-01 00:09:01+00:00,243.4915,15.2,12.81,47.84626,-54.09684
2021-09-01 00:19:01+00:00,244.5464,15.2,12.73,47.84626,-54.09684
2021-09-01 00:29:01+00:00,246.8748,15.2,12.73,47.84626,-54.09684
2021-09-01 00:39:01+00:00,242.748,15.2,12.73,47.84626,-54.09684
2021-09-01 00:49:01+00:00,239.4381,15.2,12.73,47.84626,-54.09684
2021-09-01 00:59:01+00:00,242.6331,15.2,12.73,47.84626,-54.09684
2021-09-01 01:09:01+00:00,244.4131,15.2,12.73,47.84626,-54.09684
2021-09-01 01:19:01+00:00,243.6214,15.2,12.73,47.84626,-54.09684
2021-09-01 01:29:01+00:00,243.8647,15.2,12.73,47.84626,-54.09684
2021-09-01 01:39:01+00:00,248.0647,15.2,12.73,47.84626,-54.09684
2021-09-01 01:49:01+00:00,247.6331,15.2,12.73,47.84626,-54.09684
2021-09-01 01:59:01+00:00,247.6764,15.26,12.73,47.84626,-54.09684
2021-09-01 02:09:01+00:00,249.163,15.29,12.73,47.84626,-54.09684
2021-09-01 02:19:00+00:00,251.3931,15.3,12.73,47.84626,-54.09684
2021-09-01 02:29:00+00:00,250.9681,15.3,12.73,47.84626,-54.09684
2021-09-01 02:39:00+00:00,251.8865,15.3,12.73,47.84626,-54.09684
2021-09-01 02:49:00+00:00,251.9598,15.3,12.73,47.84626,-54.09684
2021-09-01 02:59:00+00:00,254.5314,15.3,12.73,47.84626,-54.09684
2021-09-01 03:09:00+00:00,257.1898,15.31,12.73,47.84626,-54.09684
2021-09-01 03:19:01+00:00,259.9597,15.34,12.73,47.84626,-54.09684
2021-09-01 03:29:01+00:00,264.2981,15.37,12.73,47.84626,-54.09684
2021-09-01 03:39:01+00:00,269.1797,15.39,12.73,47.84626,-54.09684
2021-09-01 03:49:01+00:00,271.1347,15.4,12.73,47.84626,-54.09684
2021-09-01 03:59:01+00:00,271.5331,15.4,12.73,47.84626,-54.09684
2021-09-01 04:09:01+00:00,274.8797,15.4,12.73,47.84626,-54.09684
2021-09-01 04:19:01+00:00,279.8582,15.4,12.73,47.84626,-54.09684
2021-09-01 04:29:01+00:00,281.3147,15.4,12.73,47.84626,-54.09684
2021-09-01 04:39:01+00:00,283.2063,15.4,12.73,47.84626,-54.09684
2021-09-01 04:49:01+00:00,287.778,15.4,12.73,47.84626,-54.09684
2021-09-01 04:59:01+00:00,290.9664,15.4,12.73,47.84626,-54.09684
2021-09-01 05:09:01+00:00,293.6397,15.43,12.73,47.84626,-54.09684
2021-09-01 05:19:01+00:00,299.198,15.43,12.65,47.84626,-54.09684
2021-09-01 05:29:01+00:00,302.258,15.43,12.65,47.84626,-54.09684
2021-09-01 05:39:01+00:00,304.9481,15.43,12.65,47.84626,-54.09684
2021-09-01 05:49:01+00:00,303.5664,15.45,12.65,47.84626,-54.09684
2021-09-01 05:59:01+00:00,303.1347,15.47,12.65,47.84626,-54.09684
2021-09-01 06:09:01+00:00,304.3464,15.48,12.65,47.84626,-54.09684
2021-09-01 06:19:01+00:00,306.998,15.47,12.65,47.84626,-54.09684
2021-09-01 06:29:01+00:00,305.0897,15.48,12.65,47.84626,-54.09684
2021-09-01 06:39:01+00:00,303.58299999999997,15.49,12.65,47.84626,-54.09684
2021-09-01 06:49:01+00:00,308.1413,15.5,12.65,47.84626,-54.09684
2021-09-01 06:59:01+00:00,309.9664,15.49,12.65,47.84626,-54.09684
2021-09-01 07:09:01+00:00,305.0364,15.5,12.65,47.84626,-54.09684
2021-09-01 07:19:01+00:00,302.7797,15.5,12.65,47.84626,-54.09684
2021-09-01 07:29:01+00:00,305.6947,15.5,12.65,47.84626,-54.09684
2021-09-01 07:39:01+00:00,302.1296,15.52,12.65,47.84626,-54.09684
2021-09-01 07:49:01+00:00,297.9014,15.58,12.65,47.84626,-54.09684
2021-09-01 07:59:01+00:00,299.7713,15.58,12.65,47.84626,-54.09684
2021-09-01 08:09:01+00:00,301.8864,15.57,12.65,47.84626,-54.09684
2021-09-01 08:19:01+00:00,293.673,15.59,12.65,47.84626,-54.09684
2021-09-01 08:29:01+00:00,289.158,15.6,12.65,47.84626,-54.09684
2021-09-01 08:39:01+00:00,291.243,15.6,12.65,47.84626,-54.09684
2021-09-01 08:49:01+00:00,292.7647,15.6,12.65,47.84626,-54.09684
2021-09-01 08:59:01+00:00,284.238,15.6,12.65,47.84626,-54.09684
2021-09-01 09:09:01+00:00,277.1081,15.6,12.65,47.84626,-54.09684
2021-09-01 09:19:01+00:00,276.8497,15.6,12.65,47.84626,-54.09684
2021-09-01 09:29:01+00:00,275.7498,15.64,12.65,47.84626,-54.09684
2021-09-01 09:39:01+00:00,269.8997,15.69,12.65,47.84626,-54.09684
2021-09-01 09:49:01+00:00,266.148,15.7,12.65,47.84626,-54.09684
2021-09-01 09:59:01+00:00,264.1514,15.7,12.65,47.84626,-54.09684
2021-09-01 10:09:01+00:00,263.3964,15.7,12.65,47.84626,-54.09684
2021-09-01 10:19:01+00:00,259.0948,15.7,12.65,47.84626,-54.09684
2021-09-01 10:29:01+00:00,257.6913,15.7,12.65,47.84626,-54.09684
2021-09-01 10:39:01+00:00,258.6447,15.7,12.65,47.84626,-54.09684
2021-09-01 10:49:01+00:00,257.6281,15.7,12.65,47.84626,-54.09684
2021-09-01 10:59:01+00:00,252.0397,15.7,12.65,47.84626,-54.09684
2021-09-01 11:09:01+00:00,249.5814,15.75,12.65,47.84626,-54.09684
2021-09-01 11:19:01+00:00,247.7814,15.78,12.81,47.84626,-54.09684
2021-09-01 11:29:01+00:00,249.8615,15.8,12.81,47.84626,-54.09684
2021-09-01 11:39:01+00:00,250.1131,15.8,12.81,47.84626,-54.09684
2021-09-01 11:49:01+00:00,248.3298,15.8,12.81,47.84626,-54.09684
2021-09-01 11:59:01+00:00,246.9381,15.83,12.81,47.84626,-54.09684
2021-09-01 12:09:01+00:00,249.6481,15.81,12.81,47.84626,-54.09684
2021-09-01 12:19:01+00:00,251.0047,15.8,14.16,47.84626,-54.09684
2021-09-01 12:29:01+00:00,248.1714,15.8,14.16,47.84626,-54.09684
2021-09-01 12:39:01+00:00,245.1097,15.85,14.16,47.84626,-54.09684
2021-09-01 12:49:01+00:00,247.9897,15.87,14.16,47.84626,-54.09684
2021-09-01 12:59:01+00:00,248.4098,15.84,14.16,47.84626,-54.09684
2021-09-01 13:09:01+00:00,248.7814,15.8,14.16,47.84626,-54.09684
2021-09-01 13:19:01+00:00,250.3531,15.8,14.0,47.84626,-54.09684
2021-09-01 13:29:01+00:00,252.9664,15.8,14.0,47.84626,-54.09684
2021-09-01 13:39:01+00:00,249.5747,15.79,14.0,47.84626,-54.09684
2021-09-01 13:49:01+00:00,246.8665,15.8,14.0,47.84626,-54.09684
2021-09-01 13:59:01+00:00,250.2414,15.8,14.0,47.84626,-54.09684
2021-09-01 14:09:01+00:00,255.3731,15.8,14.0,47.84626,-54.09684
2021-09-01 14:19:01+00:00,255.3731,15.8,14.32,47.84626,-54.09684
2021-09-01 14:29:01+00:00,256.0031,15.8,14.32,47.84626,-54.09684
2021-09-01 14:39:01+00:00,256.0215,15.84,14.32,47.84626,-54.09684
2021-09-01 14:49:01+00:00,257.4915,15.88,14.32,47.84626,-54.09684
2021-09-01 14:59:01+00:00,257.2881,15.9,14.32,47.84626,-54.09684
2021-09-01 15:09:01+00:00,261.5398,15.9,14.32,47.84626,-54.09684
2021-09-01 15:19:01+00:00,264.9231,15.9,14.16,47.84626,-54.09684
2021-09-01 15:29:01+00:00,269.0281,15.9,14.16,47.84626,-54.09684
2021-09-01 15:39:01+00:00,271.4064,15.9,14.16,47.84626,-54.09684
2021-09-01 15:49:01+00:00,275.488,15.9,14.16,47.84626,-54.09684
2021-09-01 15:59:01+00:00,277.8997,15.9,14.16,47.84626,-54.09684
2021-09-01 16:09:01+00:00,280.2997,15.9,14.16,47.84626,-54.09684
2021-09-01 16:19:01+00:00,284.9131,15.9,14.32,47.84626,-54.09684
2021-09-01 16:29:01+00:00,292.0347,15.9,14.32,47.84626,-54.09684
2021-09-01 16:39:01+00:00,294.6247,15.88,14.32,47.84626,-54.09684
2021-09-01 16:49:01+00:00,294.7481,15.88,14.32,47.84626,-54.09684
2021-09-01 16:59:01+00:00,299.803,15.87,14.32,47.84626,-54.09684
2021-09-01 17:09:01+00:00,304.0147,15.84,14.32,47.84626,-54.09684
2021-09-01 17:19:01+00:00,305.7031,15.8,14.16,47.84626,-54.09684
2021-09-01 17:29:01+00:00,309.0414,15.79,14.16,47.84626,-54.09684
2021-09-01 17:39:01+00:00,312.798,15.79,14.16,47.84626,-54.09684
2021-09-01 17:49:01+00:00,317.658,15.79,14.16,47.84626,-54.09684
2021-09-01 17:59:01+00:00,319.8879,15.78,14.16,47.84626,-54.09684
2021-09-01 18:09:01+00:00,324.3097,15.78,14.16,47.84626,-54.09684
2021-09-01 18:19:01+00:00,325.9813,15.79,14.0,47.84626,-54.09684
2021-09-01 18:29:01+00:00,327.048,15.79,14.0,47.84626,-54.09684
2021-09-01 18:39:01+00:00,326.883,15.8,14.0,47.84626,-54.09684
2021-09-01 18:49:01+00:00,326.488,15.8,14.0,47.84626,-54.09684
2021-09-01 18:59:01+00:00,327.8130000000001,15.8,14.0,47.84626,-54.09684
2021-09-01 19:09:01+00:00,331.89300000000014,15.79,14.0,47.84626,-54.09684
2021-09-01 19:19:01+00:00,333.0396,15.78,13.68,47.84626,-54.09684
2021-09-01 19:29:01+00:00,333.163,15.79,13.68,47.84626,-54.09684
2021-09-01 19:39:01+00:00,332.0247,15.8,13.68,47.84626,-54.09684
2021-09-01 19:49:01+00:00,333.2363,15.8,13.68,47.84626,-54.09684
2021-09-01 19:59:01+00:00,332.0945,15.79,13.68,47.84626,-54.09684
2021-09-01 20:09:01+00:00,329.0596,15.8,13.68,47.84626,-54.09684
2021-09-01 20:19:01+00:00,326.8912,15.8,13.6,47.84626,-54.09684
2021-09-01 20:29:01+00:00,326.1746,15.8,13.6,47.84626,-54.09684
2021-09-01 20:39:01+00:00,324.3447,15.78,13.6,47.84626,-54.09684
2021-09-01 20:49:01+00:00,318.9629,15.78,13.6,47.84626,-54.09684
2021-09-01 20:59:01+00:00,318.4329,15.78,13.6,47.84626,-54.09684
2021-09-01 21:09:01+00:00,319.318,15.8,13.6,47.84626,-54.09684
2021-09-01 21:19:00+00:00,316.773,15.82,13.37,47.84626,-54.09684
2021-09-01 21:29:00+00:00,314.0547,15.9,13.37,47.84626,-54.09684
2021-09-01 21:39:00+00:00,311.7863,15.9,13.37,47.84626,-54.09684
2021-09-01 21:49:00+00:00,307.073,15.9,13.37,47.84626,-54.09684
2021-09-01 21:59:00+00:00,307.9313,15.9,13.37,47.84626,-54.09684
2021-09-01 22:09:00+00:00,304.118,15.9,13.37,47.84626,-54.09684
2021-09-01 22:19:01+00:00,295.5397,15.9,13.05,47.84626,-54.09684
2021-09-01 22:29:01+00:00,286.813,15.9,13.05,47.84626,-54.09684
2021-09-01 22:39:01+00:00,287.7164,15.9,13.05,47.84626,-54.09684
2021-09-01 22:49:01+00:00,281.3997,15.89,13.05,47.84626,-54.09684
2021-09-01 22:59:01+00:00,274.238,15.88,13.05,47.84626,-54.09684
2021-09-01 23:09:01+00:00,272.6564,15.81,13.05,47.84626,-54.09684
2021-09-01 23:19:01+00:00,272.2947,15.83,12.81,47.84626,-54.09684
2021-09-01 23:29:01+00:00,262.0048,15.88,12.81,47.84626,-54.09684
2021-09-01 23:39:01+00:00,256.7365,15.94,12.81,47.84626,-54.09684
2021-09-01 23:49:01+00:00,264.1781,15.97,12.81,47.84626,-54.09684
2021-09-01 23:59:01+00:00,267.7597,15.98,12.81,47.84626,-54.09684
